When you browse on this site, cookies collect data to enhance your experience and personalize the content and advertising you see.
Visit our Privacy Policy to learn more. By continuing to use the site, you agree to this use of cookies and data.
  • In United Kingdom
  • List of Countries
  • For 7 days
  • Water Temperature
  • Weather Map
  • Weather Widgets
  • user-avatar
    Login

    Hourly Weather Zhmindino

    Today, 5 April, Sunday

    Time Temperature Precipitation Wind Pressure Humidity
    00:00 -2°C° 0 mm 4 mps 754 mmHg 73%
    01:00 -2°C° 0 mm 4 mps 755 mmHg 76%
    02:00 -1°C° 0 mm 3 mps 755 mmHg 78%
    03:00 -2°C° 0 mm 3 mps 756 mmHg 80%
    04:00 -2°C° 0 mm 3 mps 756 mmHg 83%
    05:00 -2°C° 0 mm 3 mps 756 mmHg 86%
    06:00 -2°C° 0 mm 4 mps 757 mmHg 82%
    07:00 -1°C° 0 mm 4 mps 757 mmHg 78%
    08:00 0°C° 0 mm 4 mps 757 mmHg 74%
    09:00 +2°C° 0 mm 5 mps 758 mmHg 63%
    10:00 +3°C° 0 mm 5 mps 758 mmHg 52%
    11:00 +5°C° 0 mm 6 mps 758 mmHg 41%
    12:00 +7°C° 0 mm 6 mps 758 mmHg 39%
    13:00 +7°C° 0 mm 6 mps 759 mmHg 37%
    14:00 +8°C° 0 mm 6 mps 759 mmHg 35%
    15:00 +7°C° 0 mm 5 mps 759 mmHg 37%
    16:00 +7°C° 0 mm 5 mps 759 mmHg 39%
    17:00 +7°C° 0 mm 5 mps 759 mmHg 41%
    18:00 +6°C° 0 mm 4 mps 759 mmHg 48%
    19:00 +4°C° 0 mm 3 mps 759 mmHg 55%
    20:00 +4°C° 0 mm 2 mps 759 mmHg 62%
    21:00 +3°C° 0 mm 2 mps 760 mmHg 67%
    22:00 +3°C° 0 mm 2 mps 760 mmHg 73%
    23:00 +2°C° 0 mm 2 mps 760 mmHg 78%

    Tomorrow, 6 April, Monday

    Time Temperature Precipitation Wind Pressure Humidity
    00:00 +2°C° 0 mm 2 mps 760 mmHg 82%
    01:00 +2°C° 0 mm 2 mps 760 mmHg 86%
    02:00 +2°C° 0 mm 2 mps 760 mmHg 90%
    03:00 +2°C° 0 mm 2 mps 760 mmHg 91%
    04:00 +2°C° 0 mm 2 mps 760 mmHg 91%
    05:00 +2°C° 0 mm 2 mps 760 mmHg 92%
    06:00 +2°C° 0 mm 3 mps 760 mmHg 85%
    07:00 +3°C° 0 mm 3 mps 760 mmHg 78%
    08:00 +4°C° 0 mm 3 mps 761 mmHg 71%
    09:00 +5°C° 0 mm 3 mps 761 mmHg 65%
    10:00 +8°C° 0 mm 3 mps 761 mmHg 59%
    11:00 +10°C° 0 mm 4 mps 761 mmHg 54%
    12:00 +11°C° 0 mm 4 mps 761 mmHg 51%
    13:00 +11°C° 0 mm 4 mps 761 mmHg 49%
    14:00 +12°C° 0 mm 4 mps 761 mmHg 47%
    15:00 +12°C° 0 mm 3 mps 761 mmHg 47%
    16:00 +12°C° 0 mm 3 mps 761 mmHg 48%
    17:00 +12°C° 0 mm 3 mps 760 mmHg 48%
    18:00 +10°C° 0 mm 2 mps 760 mmHg 54%
    19:00 +9°C° 0 mm 2 mps 760 mmHg 60%
    20:00 +8°C° 0 mm 1 mps 760 mmHg 65%
    21:00 +8°C° 0 mm 1 mps 760 mmHg 66%
    22:00 +7°C° 0 mm 1 mps 761 mmHg 68%
    23:00 +7°C° 0 mm 1 mps 761 mmHg 69%

    Day after tomorrow, 7 April, Tuesday

    Time Temperature Precipitation Wind Pressure Humidity
    00:00 +6°C° 0 mm 1 mps 761 mmHg 70%
    01:00 +5°C° 0 mm 2 mps 761 mmHg 71%
    02:00 +4°C° 0 mm 2 mps 761 mmHg 73%
    03:00 +4°C° 0 mm 2 mps 761 mmHg 73%
    04:00 +4°C° 0 mm 2 mps 760 mmHg 73%
    05:00 +2°C° 0 mm 3 mps 760 mmHg 73%
    06:00 +3°C° 0 mm 3 mps 760 mmHg 69%
    07:00 +5°C° 0 mm 4 mps 760 mmHg 64%
    08:00 +6°C° 0 mm 4 mps 760 mmHg 60%
    09:00 +8°C° 0 mm 4 mps 759 mmHg 54%
    10:00 +10°C° 0 mm 5 mps 759 mmHg 49%
    11:00 +12°C° 0 mm 5 mps 759 mmHg 43%
    12:00 +13°C° 0 mm 6 mps 758 mmHg 42%
    13:00 +14°C° 0 mm 6 mps 758 mmHg 40%
    14:00 +15°C° 0 mm 6 mps 758 mmHg 39%
    15:00 +15°C° 0 mm 6 mps 757 mmHg 41%
    16:00 +14°C° 0 mm 6 mps 757 mmHg 43%
    17:00 +14°C° 0 mm 5 mps 756 mmHg 45%
    18:00 +13°C° 0 mm 5 mps 756 mmHg 51%
    19:00 +10°C° 0 mm 5 mps 755 mmHg 57%
    20:00 +10°C° 0 mm 4 mps 755 mmHg 63%
    21:00 +10°C° 0 mm 4 mps 755 mmHg 66%
    22:00 +8°C° 0 mm 4 mps 755 mmHg 70%
    23:00 +8°C° 0 mm 4 mps 755 mmHg 74%

    8 April, Wednesday

    Time Temperature Precipitation Wind Pressure Humidity
    00:00 +7°C° 0 mm 4 mps 755 mmHg 77%
    01:00 +7°C° 0 mm 4 mps 755 mmHg 81%
    02:00 +7°C° 0 mm 4 mps 755 mmHg 85%
    03:00 +6°C° 0 mm 4 mps 755 mmHg 88%
    04:00 +5°C° 0 mm 4 mps 755 mmHg 91%
    05:00 +5°C° 0 mm 4 mps 755 mmHg 94%
    06:00 +5°C° 0 mm 4 mps 755 mmHg 90%
    07:00 +5°C° 0 mm 4 mps 755 mmHg 85%
    08:00 +6°C° 0 mm 4 mps 755 mmHg 81%
    09:00 +7°C° 0 mm 4 mps 755 mmHg 75%
    10:00 +9°C° 0 mm 3 mps 755 mmHg 70%
    11:00 +10°C° 0 mm 3 mps 756 mmHg 64%
    12:00 +11°C° 0 mm 3 mps 755 mmHg 58%
    13:00 +12°C° 0 mm 3 mps 755 mmHg 52%
    14:00 +13°C° 0 mm 3 mps 755 mmHg 47%
    15:00 +13°C° 0 mm 3 mps 754 mmHg 47%
    16:00 +14°C° 0 mm 2 mps 754 mmHg 47%
    17:00 +14°C° 0 mm 2 mps 753 mmHg 46%
    18:00 +13°C° 0 mm 2 mps 753 mmHg 53%
    19:00 +10°C° 0 mm 2 mps 753 mmHg 60%
    20:00 +9°C° 0 mm 2 mps 752 mmHg 67%
    21:00 +8°C° 0 mm 2 mps 752 mmHg 70%
    22:00 +8°C° 0 mm 2 mps 752 mmHg 73%
    23:00 +7°C° 0 mm 2 mps 751 mmHg 76%

    9 April, Thursday

    Time Temperature Precipitation Wind Pressure Humidity
    00:00 +7°C° 0 mm 3 mps 751 mmHg 78%
    01:00 +5°C° 0 mm 3 mps 750 mmHg 80%
    02:00 +5°C° 0 mm 3 mps 750 mmHg 81%
    03:00 +5°C° 0 mm 3 mps 749 mmHg 82%
    04:00 +4°C° 0 mm 3 mps 749 mmHg 83%
    05:00 +3°C° 0 mm 4 mps 748 mmHg 84%
    06:00 +4°C° 0 mm 4 mps 748 mmHg 75%
    07:00 +5°C° 0 mm 4 mps 748 mmHg 66%
    08:00 +6°C° 0 mm 5 mps 747 mmHg 56%
    09:00 +7°C° 0 mm 5 mps 747 mmHg 54%
    10:00 +9°C° 0 mm 6 mps 746 mmHg 52%
    11:00 +10°C° 0 mm 6 mps 746 mmHg 49%
    12:00 +11°C° 0 mm 6 mps 746 mmHg 51%
    13:00 +11°C° 0 mm 6 mps 745 mmHg 54%
    14:00 +11°C° 0 mm 6 mps 745 mmHg 56%
    15:00 +10°C° 0.2 mm 6 mps 745 mmHg 60%
    16:00 +9°C° 0.2 mm 5 mps 745 mmHg 64%
    17:00 +8°C° 0.2 mm 5 mps 745 mmHg 69%
    18:00 +7°C° 0.1 mm 4 mps 745 mmHg 71%
    19:00 +6°C° 0.1 mm 4 mps 745 mmHg 74%
    20:00 +5°C° 0.1 mm 3 mps 746 mmHg 76%
    21:00 +4°C° 0 mm 3 mps 746 mmHg 78%
    22:00 +3°C° 0 mm 3 mps 746 mmHg 80%
    23:00 +2°C° 0 mm 3 mps 746 mmHg 82%

    10 April, Friday

    Time Temperature Precipitation Wind Pressure Humidity
    00:00 +2°C° 0 mm 3 mps 747 mmHg 80%
    01:00 +1°C° 0 mm 3 mps 747 mmHg 79%
    02:00 0°C° 0 mm 3 mps 747 mmHg 77%
    03:00 0°C° 0 mm 3 mps 747 mmHg 79%
    04:00 0°C° 0 mm 3 mps 748 mmHg 80%
    05:00 -2°C° 0 mm 4 mps 748 mmHg 81%
    06:00 -1°C° 0 mm 4 mps 748 mmHg 76%
    07:00 0°C° 0 mm 5 mps 748 mmHg 70%
    08:00 +1°C° 0 mm 5 mps 749 mmHg 65%
    09:00 +2°C° 0 mm 6 mps 749 mmHg 59%
    10:00 +3°C° 0 mm 6 mps 749 mmHg 54%
    11:00 +5°C° 0 mm 6 mps 749 mmHg 48%
    12:00 +5°C° 0 mm 6 mps 749 mmHg 47%
    13:00 +7°C° 0 mm 6 mps 749 mmHg 46%
    14:00 +7°C° 0 mm 6 mps 749 mmHg 44%
    15:00 +7°C° 0 mm 6 mps 749 mmHg 46%
    16:00 +5°C° 0 mm 6 mps 749 mmHg 47%
    17:00 +5°C° 0 mm 6 mps 749 mmHg 48%
    18:00 +3°C° 0 mm 6 mps 749 mmHg 50%
    19:00 +2°C° 0 mm 5 mps 749 mmHg 52%
    20:00 0°C° 0 mm 4 mps 750 mmHg 54%
    21:00 -1°C° 0 mm 4 mps 750 mmHg 58%
    22:00 -1°C° 0 mm 4 mps 750 mmHg 62%
    23:00 -2°C° 0 mm 4 mps 750 mmHg 66%
    Show more